User: anonymous   Login
Location: Unspecified
(0.0000°N, 0.0000°E)
Time: 02:24:53
(UTC+00:00)
Language:

OPTUS D3 - Orbit

View from above orbital plane
View from above orbital plane
View from above satellite
View from above satellite

Ground track
Ground track

The orbit data is extracted from the following two-line orbital elements,

1 35756U 09044B   19082.83922817 -.00000171  00000-0  00000+0 0  9992
2 35756   0.0156  56.4288 0004476 312.1986 270.5280  1.00269650 35139
Epoch (UTC): 23 March 2019 20:08:29
Eccentricity: 0.0004476
inclination: 0.0156°
perigee height: 35768 km
apogee height: 35805 km
right ascension of ascending node: 56.4288°
argument of perigee: 312.1986°
revolutions per day: 1.00269650
mean anomaly at epoch: 270.5280°
orbit number at epoch: 3513

The dashed part of the orbit path shows where the satellite is in the earth's shadow,  

DLR